TimeCST,TemperatureF,Dew PointF,Humidity,Sea Level PressureIn,VisibilityMPH,Wind Direction,Wind SpeedMPH,Gust SpeedMPH,PrecipitationIn,Events,Conditions,WindDirDegrees,DateUTC
12:15 AM,60.3,54.5,81,30.22,10.0,SSE,5.8,-,N/A,,Overcast,150,2012-12-04 06:15:00
12:35 AM,59.9,54.0,81,30.22,10.0,SE,4.6,-,N/A,,Mostly Cloudy,140,2012-12-04 06:35:00
12:55 AM,59.5,53.6,81,30.23,10.0,South,3.5,-,N/A,,Mostly Cloudy,170,2012-12-04 06:55:00
1:15 AM,58.3,52.9,82,30.23,10.0,SE,4.6,-,N/A,,Scattered Clouds,140,2012-12-04 07:15:00
1:35 AM,58.5,52.7,81,30.23,10.0,ESE,3.5,-,N/A,,Scattered Clouds,120,2012-12-04 07:35:00
1:55 AM,58.3,52.7,82,30.23,10.0,SE,4.6,-,N/A,,Scattered Clouds,140,2012-12-04 07:55:00
2:15 AM,59.0,52.9,80,30.23,10.0,SE,5.8,-,N/A,,Scattered Clouds,130,2012-12-04 08:15:00
2:55 AM,59.0,53.1,81,30.23,10.0,SSE,4.6,-,N/A,,Clear,160,2012-12-04 08:55:00
3:15 AM,58.5,53.1,82,30.23,10.0,SSE,5.8,-,N/A,,Scattered Clouds,150,2012-12-04 09:15:00
3:35 AM,58.8,53.6,83,30.23,10.0,SSE,8.1,-,N/A,,Mostly Cloudy,150,2012-12-04 09:35:00
3:55 AM,58.5,53.6,84,30.24,10.0,SSE,3.5,-,N/A,,Mostly Cloudy,150,2012-12-04 09:55:00
4:15 AM,57.7,53.2,85,30.24,10.0,SSE,3.5,-,N/A,,Scattered Clouds,160,2012-12-04 10:15:00
4:35 AM,57.2,53.1,86,30.25,10.0,South,4.6,-,N/A,,Scattered Clouds,170,2012-12-04 10:35:00
4:55 AM,57.2,52.9,85,30.24,10.0,South,4.6,-,N/A,,Scattered Clouds,170,2012-12-04 10:55:00
5:15 AM,57.2,52.9,85,30.24,10.0,South,5.8,-,N/A,,Scattered Clouds,170,2012-12-04 11:15:00
5:35 AM,58.3,52.9,82,30.25,10.0,South,5.8,-,N/A,,Mostly Cloudy,170,2012-12-04 11:35:00
5:55 AM,58.1,52.7,82,30.26,10.0,SSE,3.5,-,N/A,,Mostly Cloudy,150,2012-12-04 11:55:00
6:15 AM,57.7,52.3,82,30.26,10.0,SSE,4.6,-,N/A,,Scattered Clouds,160,2012-12-04 12:15:00
6:35 AM,57.6,52.2,82,30.26,10.0,SSE,3.5,-,N/A,,Scattered Clouds,160,2012-12-04 12:35:00
6:55 AM,57.7,52.2,82,30.27,10.0,South,4.6,-,N/A,,Scattered Clouds,170,2012-12-04 12:55:00
7:15 AM,57.9,52.3,82,30.28,10.0,SSE,5.8,-,N/A,Rain,Light Rain,150,2012-12-04 13:15:00
7:35 AM,57.7,52.3,82,30.28,10.0,SSE,4.6,-,N/A,,Scattered Clouds,160,2012-12-04 13:35:00
7:55 AM,57.6,52.5,83,30.27,10.0,SSE,4.6,-,N/A,Rain,Light Rain,150,2012-12-04 13:55:00
8:15 AM,57.4,52.7,84,30.28,10.0,South,6.9,-,N/A,,Mostly Cloudy,170,2012-12-04 14:15:00
8:35 AM,58.6,53.4,83,30.28,10.0,South,9.2,-,N/A,,Overcast,180,2012-12-04 14:35:00
8:55 AM,60.1,54.7,82,30.28,10.0,South,9.2,-,N/A,,Mostly Cloudy,180,2012-12-04 14:55:00
9:15 AM,61.2,56.1,83,30.28,10.0,South,9.2,-,N/A,,Scattered Clouds,170,2012-12-04 15:15:00
9:35 AM,62.8,56.8,81,30.29,10.0,South,9.2,16.1,N/A,,Mostly Cloudy,180,2012-12-04 15:35:00
9:55 AM,63.1,57.6,82,30.29,10.0,South,12.7,-,N/A,,Overcast,180,2012-12-04 15:55:00
10:15 AM,62.6,57.9,85,30.29,10.0,South,6.9,-,N/A,,Overcast,180,2012-12-04 16:15:00
10:35 AM,63.1,58.8,86,30.28,10.0,South,9.2,-,N/A,,Overcast,180,2012-12-04 16:35:00
10:55 AM,63.5,59.2,86,30.28,10.0,South,10.4,-,N/A,,Overcast,180,2012-12-04 16:55:00
11:15 AM,63.9,59.5,86,30.27,10.0,SSW,11.5,-,N/A,,Overcast,210,2012-12-04 17:15:00
11:35 AM,64.4,59.9,85,30.25,10.0,South,13.8,18.4,N/A,,Overcast,190,2012-12-04 17:35:00
11:55 AM,64.9,59.9,84,30.24,10.0,South,15.0,20.7,N/A,,Overcast,180,2012-12-04 17:55:00
12:15 PM,65.3,60.1,83,30.23,10.0,SSW,15.0,-,N/A,,Mostly Cloudy,200,2012-12-04 18:15:00
12:35 PM,66.2,59.5,79,30.23,10.0,South,15.0,18.4,N/A,,Scattered Clouds,190,2012-12-04 18:35:00
12:55 PM,66.2,59.2,78,30.22,10.0,SSW,10.4,-,N/A,,Scattered Clouds,200,2012-12-04 18:55:00
1:15 PM,66.6,59.2,77,30.21,10.0,South,12.7,18.4,N/A,,Scattered Clouds,190,2012-12-04 19:15:00
1:35 PM,67.1,59.4,76,30.20,10.0,South,13.8,17.3,N/A,,Scattered Clouds,180,2012-12-04 19:35:00
1:55 PM,67.3,59.4,76,30.19,10.0,South,16.1,21.9,N/A,,Scattered Clouds,190,2012-12-04 19:55:00
2:15 PM,67.1,58.8,75,30.19,10.0,SSW,15.0,-,N/A,,Mostly Cloudy,200,2012-12-04 20:15:00
2:35 PM,66.4,59.0,77,30.19,10.0,South,13.8,19.6,N/A,,Mostly Cloudy,190,2012-12-04 20:35:00
2:55 PM,65.3,59.7,82,30.19,10.0,SSW,10.4,20.7,N/A,Rain,Rain,200,2012-12-04 20:55:00
3:15 PM,64.0,60.4,88,30.20,10.0,SSW,10.4,-,N/A,Rain,Light Rain,200,2012-12-04 21:15:00
3:35 PM,63.3,60.8,91,30.20,7.0,South,9.2,-,N/A,Rain,Light Rain,190,2012-12-04 21:35:00
3:55 PM,62.8,60.8,93,30.20,7.0,South,12.7,-,0.01,Rain,Light Rain,190,2012-12-04 21:55:00
4:15 PM,62.4,60.8,94,30.20,10.0,SSW,9.2,-,N/A,,Mostly Cloudy,200,2012-12-04 22:15:00
4:55 PM,61.9,59.9,93,30.22,10.0,SSW,6.9,-,N/A,,Overcast,200,2012-12-04 22:55:00
5:15 PM,61.7,60.1,94,30.22,7.0,South,9.2,-,N/A,,Drizzle,190,2012-12-04 23:15:00
5:35 PM,61.3,60.4,97,30.22,10.0,SSW,8.1,-,N/A,,Overcast,200,2012-12-04 23:35:00
5:55 PM,61.3,60.4,97,30.22,7.0,South,9.2,-,0.01,Rain,Light Rain,190,2012-12-04 23:55:00
6:15 PM,61.2,60.3,97,30.22,7.0,SSW,8.1,-,0.01,Rain,Light Rain,200,2012-12-05 00:15:00
6:35 PM,61.2,60.3,97,30.22,7.0,SSW,9.2,-,0.01,Rain,Light Rain,200,2012-12-05 00:35:00
6:55 PM,61.0,60.1,97,30.22,7.0,SSW,9.2,-,0.01,Rain,Light Rain,200,2012-12-05 00:55:00
7:15 PM,61.0,60.3,97,30.23,7.0,SW,5.8,-,N/A,,Overcast,220,2012-12-05 01:15:00
7:35 PM,61.2,60.4,97,30.24,5.0,WNW,5.8,-,N/A,,Light Drizzle,290,2012-12-05 01:35:00
7:55 PM,59.9,58.8,96,30.24,3.0,Calm,Calm,-,0.07,Rain,Rain,0,2012-12-05 01:55:00
8:15 PM,58.8,57.7,96,30.23,7.0,Calm,Calm,-,0.02,Rain,Light Rain,0,2012-12-05 02:15:00
8:35 PM,58.5,57.6,97,30.22,10.0,SE,5.8,-,0.02,,Mostly Cloudy,140,2012-12-05 02:35:00
8:55 PM,58.8,57.4,95,30.22,10.0,SSE,6.9,-,0.02,,Mostly Cloudy,150,2012-12-05 02:55:00
9:15 PM,59.2,57.2,93,30.20,10.0,SE,5.8,-,N/A,,Scattered Clouds,140,2012-12-05 03:15:00
9:35 PM,59.4,57.4,93,30.20,10.0,SSE,6.9,-,N/A,Rain,Light Rain,150,2012-12-05 03:35:00
9:55 PM,59.4,57.4,93,30.20,10.0,SSE,6.9,-,N/A,,Light Drizzle,160,2012-12-05 03:55:00
10:15 PM,59.4,58.3,96,30.20,7.0,South,5.8,-,N/A,Rain,Light Rain,170,2012-12-05 04:15:00
10:35 PM,59.4,59.0,99,30.20,5.0,South,4.6,-,N/A,,Overcast,180,2012-12-05 04:35:00
10:55 PM,59.2,58.8,99,30.20,5.0,South,5.8,-,N/A,,Mostly Cloudy,180,2012-12-05 04:55:00
11:15 PM,58.8,58.3,98,30.20,5.0,South,3.5,-,N/A,,Scattered Clouds,190,2012-12-05 05:15:00
11:35 PM,58.3,57.7,98,30.20,10.0,Calm,Calm,-,N/A,,Clear,0,2012-12-05 05:35:00
11:55 PM,57.6,56.8,97,30.21,7.0,NW,5.8,-,N/A,,Scattered Clouds,310,2012-12-05 05:55:00